MSC Divina — 3FFA5 — position and weather

sailwx.info

Track history (hours):
 
Tides and Currents Weather Stations Pressure Air Temp Water Temp Dewpoint Dewpoint Depression Visibility Wind Speed Wind Dir Waves Ship Positions

MSC Divina

Last reported at 2014-Oct-31 06:12 UTC. Time now 2014-Oct-31 09:14 UTC.
Position N 26°12' W 079°16'.

Length 333 m; draft 8.7 m.

Type: Ship. MMSI: 373178000.

Date/timePositionNaut miles runAvg speedWind from/ knotsBaromVisibWave heightAir tempDewpointWater temp
2014-Oct-31 06:12N 26°12' W 079°16'1218.8
2014-Oct-31 05:33N 26°02' W 079°24'2020.3
2014-Oct-31 04:33N 25°43' W 079°32'51418.4
2014-Oct-30 00:33N 20°33' W 086°58'2 1.8
2014-Oct-29 23:28N 20°31' W 086°57'0 0.0
2014-Oct-29 22:28N 20°31' W 086°57'0 0.0
2014-Oct-29 21:28N 20°31' W 086°57'0 0.0
2014-Oct-29 20:28N 20°31' W 086°57'0 0.0
2014-Oct-29 19:28N 20°31' W 086°57'0 0.0
2014-Oct-29 18:28N 20°31' W 086°57'0 0.0
2014-Oct-29 17:28N 20°31' W 086°57'0 0.0
2014-Oct-29 16:28N 20°31' W 086°57'0 0.0
2014-Oct-29 15:33N 20°31' W 086°57'  
2014-Oct-26 00:33N 25°41' W 080°00'1110.8
2014-Oct-25 23:33N 25°47' W 080°10'0 0.1
2014-Oct-25 22:26N 25°47' W 080°10'0 0.0
2014-Oct-25 21:29N 25°47' W 080°10'0 0.0
2014-Oct-25 20:29N 25°47' W 080°10'0 0.0
2014-Oct-25 19:32N 25°47' W 080°10'0 0.0
2014-Oct-25 18:32N 25°47' W 080°10'0 0.0
2014-Oct-25 17:29N 25°47' W 080°10'0 0.0
2014-Oct-25 16:20N 25°47' W 080°10'0 0.0
2014-Oct-25 15:32N 25°47' W 080°10'0 0.0
2014-Oct-25 14:32N 25°47' W 080°10'0 0.0
2014-Oct-25 13:23N 25°47' W 080°10'0 0.0
2014-Oct-25 12:23N 25°47' W 080°10'0 0.0
2014-Oct-25 11:26N 25°47' W 080°10'0 0.0
2014-Oct-25 10:23N 25°47' W 080°10'1 0.7
2014-Oct-25 09:33N 25°47' W 080°11'8 8.4
2014-Oct-25 08:33N 25°46' W 080°02'1413.5
2014-Oct-25 07:33N 25°53' W 079°49'1615.6
2014-Oct-25 06:33N 26°02' W 079°35'1717.0
2014-Oct-25 05:33N 26°12' W 079°19'  
2014-Oct-22 02:12N 18°04' W 063°45'8 9.2
2014-Oct-22 01:22N 18°03' W 063°37'7 9.3
2014-Oct-22 00:33N 18°02' W 063°29'9 8.8
2014-Oct-21 23:30N 18°02' W 063°20'1313.9
2014-Oct-21 22:33N 17°60' W 063°06'1 0.1
2014-Oct-21 12:26N 18°00' W 063°04'9 9.1
2014-Oct-21 11:24N 18°03' W 063°14'1214.0
2014-Oct-21 10:32N 18°10' W 063°24'1716.6
2014-Oct-21 09:32N 18°21' W 063°38'  
Track history (hours):
 
Tides and Currents Weather Stations Pressure Air Temp Water Temp Dewpoint Dewpoint Depression Visibility Wind Speed Wind Dir Waves Ship Positions

MSC Divina

Last reported at 2014-Oct-31 06:12 UTC. Time now 2014-Oct-31 09:14 UTC.
Position N 26°12' W 079°16'.

Length 333 m; draft 8.7 m.

Type: Ship. MMSI: 373178000.

Date/timePositionNaut miles runAvg speedWind from/ knotsBaromVisibWave heightAir tempDewpointWater temp
2014-Oct-31 06:12N 26°12' W 079°16'1218.8
2014-Oct-31 05:33N 26°02' W 079°24'2020.3
2014-Oct-31 04:33N 25°43' W 079°32'51418.4
2014-Oct-30 00:33N 20°33' W 086°58'2 1.8
2014-Oct-29 23:28N 20°31' W 086°57'0 0.0
2014-Oct-29 22:28N 20°31' W 086°57'0 0.0
2014-Oct-29 21:28N 20°31' W 086°57'0 0.0
2014-Oct-29 20:28N 20°31' W 086°57'0 0.0
2014-Oct-29 19:28N 20°31' W 086°57'0 0.0
2014-Oct-29 18:28N 20°31' W 086°57'0 0.0
2014-Oct-29 17:28N 20°31' W 086°57'0 0.0
2014-Oct-29 16:28N 20°31' W 086°57'0 0.0
2014-Oct-29 15:33N 20°31' W 086°57'  
2014-Oct-26 00:33N 25°41' W 080°00'1110.8
2014-Oct-25 23:33N 25°47' W 080°10'0 0.1
2014-Oct-25 22:26N 25°47' W 080°10'0 0.0
2014-Oct-25 21:29N 25°47' W 080°10'0 0.0
2014-Oct-25 20:29N 25°47' W 080°10'0 0.0
2014-Oct-25 19:32N 25°47' W 080°10'0 0.0
2014-Oct-25 18:32N 25°47' W 080°10'0 0.0
2014-Oct-25 17:29N 25°47' W 080°10'0 0.0
2014-Oct-25 16:20N 25°47' W 080°10'0 0.0
2014-Oct-25 15:32N 25°47' W 080°10'0 0.0
2014-Oct-25 14:32N 25°47' W 080°10'0 0.0
2014-Oct-25 13:23N 25°47' W 080°10'0 0.0
2014-Oct-25 12:23N 25°47' W 080°10'0 0.0
2014-Oct-25 11:26N 25°47' W 080°10'0 0.0
2014-Oct-25 10:23N 25°47' W 080°10'1 0.7
2014-Oct-25 09:33N 25°47' W 080°11'8 8.4
2014-Oct-25 08:33N 25°46' W 080°02'1413.5
2014-Oct-25 07:33N 25°53' W 079°49'1615.6
2014-Oct-25 06:33N 26°02' W 079°35'1717.0
2014-Oct-25 05:33N 26°12' W 079°19'  
2014-Oct-22 02:12N 18°04' W 063°45'8 9.2
2014-Oct-22 01:22N 18°03' W 063°37'7 9.3
2014-Oct-22 00:33N 18°02' W 063°29'9 8.8
2014-Oct-21 23:30N 18°02' W 063°20'1313.9
2014-Oct-21 22:33N 17°60' W 063°06'1 0.1
2014-Oct-21 12:26N 18°00' W 063°04'9 9.1
2014-Oct-21 11:24N 18°03' W 063°14'1214.0
2014-Oct-21 10:32N 18°10' W 063°24'1716.6
2014-Oct-21 09:32N 18°21' W 063°38'  

Dump ship's entire track history